STARLINK-36360, 68402

Orbit data source: Space-Track

STARLINK-36360, 68402 is a payload satellite owned by SpaceX/Seattle (US) in SSO that was launched on Thu, 26 Mar 2026 UTC via an FALCON 9 launch vehicle from the Air Force Western Test Range (AFWTR). Payload-class satellites include a variety of spacecraft equipped with specific instruments for various scientific and technological missions. These include communications satellites like Starlink; space stations such as the ISS; scientific satellites like the Hubble; Earth observation satellites from companies like Planet Labs, Umbra, and HawkEye 360; GPS; miniature CubeSats for education and research; and military/defense satellites.

Loading next visibility...
Identifier
68402, 2026-063Y
Orbit
SSO
Country
Flag of USUS
Related business
Manufacturer
SpaceX/Seattle
Mission
Operational spacecraft
Bus & Motor
STARLINK V2MO, Unknown motor
Mass
575 kg wet, ~530 kg dry
Launch date (UTC)
2026-03-26 (3 months ago)
Launch vehicle
FALCON 9
Launch site
Air Force Western Test Range (AFWTR)
Object type
Payload
Rocket body
Debris
Shape & HBR
Unknown shape, 17.7 m
Radar Cross Section
Large (>1 m²)

Expand to show TLE details & history
Last TLE update: 6 hours ago

TLE from 6 hours ago
0 STARLINK-36360
1 68402U 26063Y   26165.83951697  .00020410  00000-0  63278-3 0  9991
2 68402  97.2863 308.1072 0000436  91.0908 269.0384 15.33447051 12781
Epoch: 2026-06-14T20:08Z
TLE epoch observation values (Epoch: 2026-06-14T20:08:54.266Z)
Latitude
-0.00008°
Longitude
102.74661°
Altitude
468.654 km
Speed
7.632 km/s
True Right ascension
20h 32m 25s
True Declination
0° 00' 00"
Sunlit
Object was in full shadow at epoch
Visualization orbit readout
Latitude
Unknown
Longitude
Unknown
Altitude
Unknown
Speed
Unknown
Apparent Right ascension
Unknown
Apparent Declination
Unknown
Sunlit
N/A
Visualization observer readout
Local Sidereal Time
12:56:01
Azimuth
Unknown
Elevation
Unknown
Doppler factor
Unknown
Orbital elements
Apogee altitude
462.778 km
Perigee altitude
462.182 km
Semi-major axis
6,840.617 km
Eccentricity
0.00004
Inclination
97.2863°
RAAN
308.1072°
Arg. of periapsis
91.0908°
True anomaly
269.0334°
Mean anomaly
269.0384°
Eccentric anomaly
269.0359°
Mean motion
3.83619 °/min
Orbital period
93.84 mins
BSTAR
0.00063278
Loading maneuver chart data...
Computing Atmospheric mass density...
Loading historical data...
Loading historical data...
Loading historical data...
Loading historical data...
Loading historical data...
Loading historical data...
Loading historical data...

Documentation

Showing up to 5 results
|